Regional Weather Roundup
Issued by NWS

Home | Current Version | Previous Version | Graphics & Text | Print | Product List | Glossary On
Versions: 1 2 3 4 5 6 7 8 9 10 11 12 13 14 15 16 17 18 19 20 21 22 23 24 25 26 27 28 29 30 31 32 33 34 35 36 37 38 39 40 41 42 43 44 45 46 47 48 49
000
ASUS45 KCYS 070710
RWRWY

WYOMING REGIONAL WEATHER ROUNDUP
NATIONAL WEATHER SERVICE CHEYENNE WY
1200 AM MST SUN FEB 07 2016

NOTE:  "FAIR" INDICATES FEW OR NO CLOUDS BELOW 12,000 FEET
WITH NO SIGNIFICANT WEATHER AND/OR OBSTRUCTIONS TO VISIBILITY.

WYZ001-070800-
YELLOWSTONE NATIONAL PARK

CITY           SKY/WX    TMP DP  RH WIND       PRES   REMARKS
LK YELLOWSTONE   N/A     20  15  81 VRB3      30.29R
W YELLOWSTONE  NOT AVBL

$$
WYZ002>013-054>058-071-098>099-070800-
NORTHERN WYOMING

CITY           SKY/WX    TMP DP  RH WIND       PRES   REMARKS
JACKSON        FAIR      28  25  86 S18       30.30F WCI  16
CODY           FAIR      30  16  55 E6        30.15R WCI  24
GREYBULL       CLOUDY    26  19  74 SE5       30.17R WCI  20
WORLAND        FAIR      26  20  77 SW9       30.16R WCI  17
SHERIDAN       CLOUDY    37  18  46 W21G36    30.16R WCI  26
BUFFALO        FLURRIES  32  22  66 NW25G40   30.14R WCI  19
GILLETTE       CLOUDY    34  18  52 NW22G31   30.10S WCI  22
HULETT         CLOUDY    34  18  51 W9G18     30.09R WCI  26
NEWCASTLE      FAIR      32  18  55 NW12      30.09F WCI  23

$$
WYZ014>020-022>026-101>103-070800-
CENTRAL WYOMING

CITY           SKY/WX    TMP DP  RH WIND       PRES   REMARKS
BIG PINEY      FAIR      19  14  81 NE8       30.32R WCI   9
PINEDALE       FAIR      18  16  93 W12       30.32S WCI   5
DUBOIS         FAIR      30  18  59 W38G48    30.15F WCI  14
LANDER         FAIR      28  15  58 S6        30.18S WCI  22
RIVERTON       FAIR      34  20  56 NW21      30.17R WCI  22
CASPER         FAIR      26  16  65 SW8       30.14R WCI  18
DOUGLAS        FAIR      27  17  66 W3          N/A

$$
WYZ021-027>030-104>119-070800-
SOUTHERN WYOMING

CITY           SKY/WX    TMP DP  RH WIND       PRES   REMARKS
EVANSTON       CLOUDY    27  15  61 W18       30.40S WCI  14
FORT BRIDGER   CLOUDY    28  19  69 W16       30.41R WCI  17
ROCK SPRINGS   FAIR      27  15  61 SW14G23   30.32R WCI  16
DIXON          CLOUDY    17  10  75 CALM      30.38F
RAWLINS        FAIR      25  17  72 W30G43    30.24R WCI   8
SARATOGA       FAIR      28  21  74 SW31G37   30.25S HAZE    WCI  12
LARAMIE        MOCLDY    29  16  58 W23G41    30.16R WCI  15
CHEYENNE       FAIR      37  15  40 W24G32    30.09F WCI  26
TORRINGTON     FAIR      32  21  64 W8        30.14R WCI  25
PINE BLUFFS    FAIR      30  21  69 NW9       30.12S WCI  22

$$



USA.gov is the U.S. government's official web portal to all federal, state and local government web resources and services.